Seretse Khama Intl Arpt, Botswana

9:49 AM CAT on February 23, 2017 (GMT +0200)
Sir Seretse Khama International

Weather History for FBSK - March, 2013

Change the Weather History Date:

Friday, March 15, 2013

  Actual Average Record
Temperature  
Mean Temperature 76 °F -  
Max Temperature 87 °F 81 °F 96 °F (2003)
Min Temperature 64 °F 59 °F 59 °F (2002)
Cooling Degree Days 10    
Growing Degree Days 26 (Base 50)    
Moisture  
Dew Point 50 °F    
Average Humidity 43    
Maximum Humidity 68    
Minimum Humidity 22    
Precipitation  
Precipitation 0.00 in - - ()
Sea Level Pressure  
Sea Level Pressure 30.08 in    
Wind  
Wind Speed 8 mph ()    
Max Wind Speed 14 mph    
Max Gust Speed -    
Visibility 6.2 miles    
Events      
Averages and records for this station are not official NWS values.
T = Trace of Precipitation, MM = Missing Value Source: Averaged Metar Reports

Daily Weather History Graph

Daily Weather History Graph

Search for Another Location

Airport or City:

Trip Planner

Search our weather history database for the weather conditions in past years. The results will help you decide how hot, cold, wet, or windy it might be!

Date:

Astronomy

Mar. 15, 2013 Rise Set
Actual Time 6:17 AM CAT 6:32 PM CAT
Civil Twilight 5:54 AM CAT 6:54 PM CAT
Nautical Twilight 5:28 AM CAT 7:21 PM CAT
Astronomical Twilight 5:01 AM CAT 7:48 PM CAT
Moon 9:26 AM CAT (3/15) 8:49 PM CAT (3/15)
Length of Visible Light 13h 00m
Length of Day
12h 14m
Waxing Crescent, 13% of the Moon is Illuminated
Mar 15
Waxing Crescent
Mar 19
First Quarter
Mar 27
Full
Apr 3
Last Quarter
Apr 10
New

Hourly Weather History & Observations

Time (CAT) Temp. Dew Point Humidity Pressure Visibility Wind Dir Wind Speed Gust Speed Precip Events Conditions
12:00 AM 69.8 °F 53.6 °F 56% 30.12 in - ENE 8.1 mph - N/A   Clear
1:00 AM 71.6 °F 51.8 °F 50% 30.15 in - South 6.9 mph - N/A   Clear
2:00 AM 68.0 °F 53.6 °F 60% 30.18 in - South 12.7 mph - N/A   Clear
4:00 AM 64.4 °F 53.6 °F 68% 30.12 in - North 9.2 mph - N/A   Clear
5:00 AM 66.2 °F 55.4 °F 68% 30.12 in 6.2 mi East 10.4 mph - N/A   Scattered Clouds
6:00 AM 66.2 °F 51.8 °F 60% 30.09 in 6.2 mi NE 13.8 mph - N/A   Scattered Clouds
7:00 AM 66.2 °F 51.8 °F 60% 30.12 in - NE 12.7 mph - N/A   Clear
8:00 AM 68.0 °F 51.8 °F 56% 30.15 in - NE 12.7 mph - N/A   Clear
9:00 AM 71.6 °F 51.8 °F 50% 30.15 in - NE 12.7 mph - N/A   Clear
10:00 AM 75.2 °F 51.8 °F 44% 30.15 in - North 10.4 mph - N/A   Clear
11:00 AM 77.0 °F 51.8 °F 41% 30.12 in - NNE 6.9 mph - N/A   Clear
12:00 PM 80.6 °F 51.8 °F 37% 30.12 in - NNE 8.1 mph - N/A   Clear
1:00 PM 82.4 °F 50.0 °F 32% 30.09 in - Variable 4.6 mph - N/A   Clear
2:00 PM 84.2 °F 48.2 °F 29% 30.04 in 6.2 mi Variable 6.9 mph - N/A   Partly Cloudy
3:00 PM 86.0 °F 46.4 °F 25% 30.01 in 6.2 mi NNW 6.9 mph - N/A   Partly Cloudy
4:00 PM 86.0 °F 44.6 °F 23% 29.98 in 6.2 mi North 5.8 mph - N/A   Partly Cloudy
5:00 PM 87.8 °F 44.6 °F 22% 29.98 in 6.2 mi Variable 3.5 mph - N/A   Partly Cloudy
6:00 PM 86.0 °F 44.6 °F 23% 29.98 in - NE 3.5 mph - N/A   Clear
7:00 PM 80.6 °F 46.4 °F 30% 29.98 in - ENE 5.8 mph - N/A   Clear
8:00 PM 77.0 °F 46.4 °F 34% 30.01 in - NE 5.8 mph - N/A   Clear
9:00 PM 75.2 °F 48.2 °F 38% 30.01 in - NE 5.8 mph - N/A   Clear
10:00 PM 75.2 °F 48.2 °F 38% 30.04 in - NE 6.9 mph - N/A   Clear
11:00 PM 71.6 °F 48.2 °F 43% 30.04 in - NNE 4.6 mph - N/A   Clear